CST,Max TemperatureF,Mean TemperatureF,Min TemperatureF,Max Dew PointF,MeanDew PointF,Min DewpointF,Max Humidity, Mean Humidity, Min Humidity, Max Sea Level PressureIn, Mean Sea Level PressureIn, Min Sea Level PressureIn, Max VisibilityMiles, Mean VisibilityMiles, Min VisibilityMiles, Max Wind SpeedMPH, Mean Wind SpeedMPH, Max Gust SpeedMPH,PrecipitationIn, CloudCover, Events, WindDirDegrees
2012-12-1,69,60,51,55,51,45,82,69,56,30.11,29.99,29.90,10,10,9,17,10,28,0.00,6,,181
2012-12-2,73,65,57,57,54,52,88,71,53,30.07,30.00,29.94,10,10,10,12,6,17,0.00,4,,189
2012-12-3,75,66,55,57,54,52,88,66,47,29.99,29.93,29.85,10,10,5,24,10,34,0.40,4,,189
2012-12-4,59,47,35,50,37,28,94,66,31,30.34,30.21,30.01,10,9,4,10,4,16,0.66,2,,4
2012-12-5,60,44,28,36,30,25,87,61,27,30.38,30.27,30.12,10,10,10,9,1,,0.00,0,,147
2012-12-6,57,45,33,43,35,27,81,68,54,30.11,29.98,29.90,10,10,10,9,5,,0.00,0,,129
2012-12-7,55,50,44,45,43,39,93,79,67,29.93,29.88,29.84,10,9,3,7,3,,0.00,7,,326
2012-12-8,46,44,41,45,39,37,93,84,81,30.01,29.95,29.90,7,4,2,12,5,,0.00,8,,50
2012-12-9,46,37,26,45,37,16,93,81,59,30.02,29.89,29.83,10,6,1,12,5,20,0.01,7,,343
2012-12-10,30,24,15,19,15,10,86,66,55,30.09,30.04,29.98,10,10,10,13,7,18,0.00,5,,302
2012-12-11,42,28,14,18,15,9,93,62,34,30.22,30.13,30.08,10,10,10,10,2,,0.00,0,,213
2012-12-12,51,36,21,21,16,12,80,48,21,30.31,30.25,30.22,10,10,10,13,4,,0.00,0,,173
2012-12-13,59,46,33,23,20,16,52,41,25,30.27,30.22,30.15,10,10,10,15,8,21,0.00,0,,180
2012-12-14,55,44,33,37,25,19,76,48,33,30.21,30.09,29.87,10,10,9,13,7,17,0.13,3,,162
2012-12-15,62,53,44,45,40,36,87,64,42,29.84,29.71,29.63,10,10,3,23,12,38,0.28,3,,213
2012-12-16,55,44,33,41,36,30,93,77,51,29.78,29.73,29.65,10,8,1,9,2,,0.00,2,,27
2012-12-17,41,36,30,37,34,27,93,88,75,29.81,29.76,29.73,10,4,1,9,4,,0.00,6,,305
2012-12-18,57,44,30,36,30,27,93,66,36,29.93,29.79,29.73,10,8,2,17,6,23,0.00,0,,204
2012-12-19,57,45,33,52,36,27,93,76,62,29.94,29.78,29.44,10,10,5,14,7,22,0.00,4,,102
2012-12-20,57,42,26,52,27,14,88,71,55,30.17,29.75,29.30,10,8,1,26,15,41,0.02,5,,276
2012-12-21,41,31,21,14,11,7,74,46,26,30.36,30.30,30.18,10,10,10,15,8,26,0.00,0,,306
2012-12-22,62,40,19,23,17,12,74,47,16,30.29,30.11,29.98,10,10,10,16,5,20,0.00,0,,171
2012-12-23,55,42,30,37,27,19,75,56,44,29.98,29.91,29.85,10,10,10,8,2,,0.00,1,,17
2012-12-24,33,26,19,27,19,14,86,74,60,30.14,30.03,29.88,10,6,4,10,5,16,0.00,4,,341
2012-12-25,30,24,19,21,16,12,86,72,63,30.24,30.14,30.09,10,9,5,20,9,26,0.00,7,,33
2012-12-26,30,24,19,18,15,12,80,68,55,30.21,30.14,30.07,10,10,10,12,7,21,0.00,6,,349
2012-12-27,35,27,19,21,19,16,86,68,52,30.18,30.09,29.99,10,10,10,13,5,18,0.00,3,,131
2012-12-28,37,32,28,27,23,19,80,69,56,30.02,29.97,29.91,10,10,7,10,6,16,0.00,8,,263
2012-12-29,32,26,19,19,15,12,80,63,44,30.35,30.22,30.01,10,9,5,13,8,21,0.00,4,,287
2012-12-30,44,30,15,21,15,10,86,54,27,30.43,30.33,30.22,10,10,10,20,6,26,0.00,0,,199
2012-12-31,37,34,32,30,27,16,93,78,41,30.23,30.14,30.07,10,4,0,12,5,16,0.44,7,,140